Hyannis, MA

5:03 AM EST on January 24, 2018 (GMT -0500)
Barnstable Municipal-Boardman-Polando Field

Weather History for KHYA - September, 2012

Change the Weather History Date:

Friday, September 21, 2012

  Actual Average Record
Temperature  
Mean Temperature 54 °F -  
Max Temperature 61 °F 69 °F 86 °F (1983)
Min Temperature 46 °F 52 °F 35 °F (1956)
Degree Days  
Heating Degree Days 12    
Growing Degree Days 4 (Base 50)    
Moisture  
Dew Point 55 °F    
Average Humidity 91    
Maximum Humidity 100    
Minimum Humidity 75    
Precipitation  
Precipitation 0.04 in - - ()
Sea Level Pressure  
Sea Level Pressure 30.08 in    
Wind  
Wind Speed 5 mph (NNE)    
Max Wind Speed 13 mph    
Max Gust Speed 20 mph    
Visibility 9 miles    
Events Rain    
Averages and records for this station are not official NWS values.
T = Trace of Precipitation, MM = Missing Value Source: NWS Daily Summary

Daily Weather History Graph

Daily Weather History Graph

Search for Another Location

Airport or City:

Trip Planner

Search our weather history database for the weather conditions in past years. The results will help you decide how hot, cold, wet, or windy it might be!

Date:

Astronomy

Sep. 21, 2012 Rise Set
Actual Time 6:27 AM EDT 6:39 PM EDT
Civil Twilight 6:00 AM EDT 7:06 PM EDT
Nautical Twilight 5:27 AM EDT 7:39 PM EDT
Astronomical Twilight 4:54 AM EDT 8:12 PM EDT
Moon 12:51 PM EDT (9/21) 10:31 PM EDT (9/21)
Length of Visible Light 13h 06m
Length of Day
12h 11m
Waxing Crescent, 37% of the Moon is Illuminated
Sep 21
Waxing Crescent
Sep 22
First Quarter
Sep 29
Full
Oct 8
Last Quarter
Oct 15
New

Hourly Weather History & Observations

Time (EDT) Temp. Dew Point Humidity Pressure Visibility Wind Dir Wind Speed Gust Speed Precip Events Conditions
12:56 AM 46.9 °F 45.0 °F 93% 30.14 in 10.0 mi Calm Calm - N/A   Clear
1:56 AM 46.9 °F 46.0 °F 97% 30.13 in 10.0 mi Calm Calm - N/A   Clear
2:56 AM 46.0 °F 45.0 °F 96% 30.13 in 10.0 mi Calm Calm - N/A   Clear
3:56 AM 48.0 °F 46.0 °F 93% 30.12 in 10.0 mi NE 3.5 mph - N/A   Clear
4:56 AM 48.9 °F 48.9 °F 100% 30.12 in 10.0 mi Calm Calm - N/A   Clear
5:56 AM 52.0 °F 51.1 °F 97% 30.12 in 10.0 mi Calm Calm - N/A   Clear
6:56 AM 55.0 °F 53.1 °F 93% 30.12 in 10.0 mi NE 3.5 mph - N/A   Clear
7:56 AM 57.9 °F 54.0 °F 87% 30.12 in 10.0 mi NNE 5.8 mph - N/A   Clear
8:56 AM 59.0 °F 54.0 °F 83% 30.13 in 10.0 mi NNE 8.1 mph - N/A   Clear
9:56 AM 60.1 °F 54.0 °F 80% 30.14 in 10.0 mi NNE 8.1 mph - N/A   Clear
10:56 AM 61.0 °F 54.0 °F 78% 30.14 in 10.0 mi NE 10.4 mph - N/A   Clear
11:56 AM 61.0 °F 53.1 °F 75% 30.12 in 10.0 mi North 8.1 mph - N/A   Clear
12:56 PM 60.1 °F 55.0 °F 83% 30.10 in 10.0 mi NE 10.4 mph - 0.00 in Rain Light Rain
1:56 PM 61.0 °F 55.9 °F 83% 30.06 in 10.0 mi ENE 10.4 mph - 0.00 in   Mostly Cloudy
2:56 PM 61.0 °F 55.9 °F 83% 30.08 in 10.0 mi North 6.9 mph - 0.00 in Rain Light Rain
3:56 PM 59.0 °F 57.0 °F 93% 30.07 in 10.0 mi NNE 10.4 mph - 0.01 in Rain Light Rain
4:56 PM 61.0 °F 57.9 °F 90% 30.06 in 10.0 mi NNE 5.8 mph - 0.00 in   Overcast
5:56 PM 59.0 °F 57.0 °F 93% 30.05 in 6.0 mi NNE 9.2 mph - 0.02 in Rain Light Rain
6:00 PM 59.0 °F 57.2 °F 94% 30.04 in 7.0 mi North 9.2 mph - 0.00 in Rain Light Rain
6:56 PM 60.1 °F 57.9 °F 93% 30.04 in 10.0 mi North 8.1 mph - 0.00 in   Overcast
7:56 PM 57.9 °F 57.0 °F 97% 30.04 in 6.0 mi NE 6.9 mph - 0.01 in Rain Light Rain
8:44 PM 59.0 °F 57.2 °F 94% 30.04 in 10.0 mi NNE 4.6 mph - 0.00 in   Overcast
8:56 PM 60.1 °F 57.9 °F 93% 30.04 in 10.0 mi NNE 6.9 mph - 0.00 in   Overcast
9:38 PM 60.8 °F 59.0 °F 94% 30.03 in 5.0 mi North 10.4 mph - N/A   Overcast
9:56 PM 60.1 °F 59.0 °F 96% 30.03 in 5.0 mi North 9.2 mph - N/A   Overcast
10:56 PM 60.1 °F 59.0 °F 96% 30.01 in 2.5 mi North 9.2 mph - 0.00 in Rain Light Rain
11:23 PM 60.8 °F 59.0 °F 94% 29.99 in 3.0 mi North 10.4 mph - 0.00 in Rain Light Rain
11:56 PM 60.1 °F 60.1 °F 100% 29.98 in 5.0 mi North 12.7 mph 19.6 mph 0.00 in   Overcast